Wind_Speed
4 4 4 4 4 5 5 5 5 5 5 5 5 4 4 3 2 1 1 1 2 3 4 5 6 7 10 11 13 13 13 13 13 12 12 12 14 15 15 14 13 11 11 10 9 8 6 6 7 8 8 8 8 9 8 7 6 5 6 6 7 6 6 4 4 7 11 14 16 15 15 13 12 11 10 10 8 6 7 11 14 14 10 10 13 16 17 16
5 4 4 4 4 5 5 5 6 6 6 6 5 5 4 4 3 2 2 1 1 3 4 4 5 6 7 9 11 13 14 14 14 13 13 13 13 15 15 15 14 13 12 12 10 9 7 6 6 7 7 8 8 8 7 5 4 3 4 5 5 3 2 2 3 5 10 14 17 16 15 15 13 11 11 11 10 8 10 13 15 14 10 11 15 17 17 15
5 5 4 4 4 5 5 6 7 7 7 7 6 6 6 5 4 3 3 2 1 1 3 4 5 6 6 7 9 11 13 15 14 14 13 13 14 14 14 15 15 15 14 13 11 10 8 6 6 7 7 6 6 5 3 2 2 2 3 4 3 2 3 3 5 6 8 13 18 18 17 17 14 13 12 11 10 9 10 12 15 14 9 11 16 17 16 15
5 5 5 5 5 5 5 6 7 7 8 8 8 7 7 6 5 4 3 2 2 1 1 3 4 5 6 6 7 9 12 14 14 14 13 13 14 14 14 15 16 16 14 13 12 10 8 7 7 7 6 4 3 2 2 3 4 4 5 5 5 6 7 7 8 9 10 13 19 21 20 19 16 15 14 12 9 8 9 9 10 9 7 12 17 16 15 15
5 5 5 5 5 5 5 6 6 7 7 7 7 7 7 7 6 5 4 3 2 1 0 1 3 4 6 6 6 8 10 12 13 14 14 14 14 15 15 15 17 16 15 14 12 11 9 9 9 7 5 2 1 1 3 4 4 5 6 7 8 10 11 11 12 13 14 14 19 24 23 20 18 16 15 12 6 4 7 9 8 5 5 11 15 15 15 15
5 5 5 4 4 4 4 5 5 6 6 6 6 6 6 6 6 6 5 4 3 2 1 0 2 3 5 6 7 7 9 10 11 14 14 14 15 15 16 15 17 17 16 15 13 12 10 11 11 8 5 2 2 2 4 4 4 6 7 8 10 13 15 16 16 17 18 17 20 26 26 22 19 17 16 12 7 7 8 9 8 6 7 11 13 13 14 14
5 5 5 4 4 4 4 4 4 4 5 5 5 5 5 5 5 5 4 4 3 3 2 1 2 3 5 6 7 7 10 10 9 13 14 15 15 15 17 17 17 18 18 16 14 13 11 13 13 8 5 3 4 3 4 4 4 5 7 9 12 15 19 20 19 17 18 17 19 27 28 24 20 17 16 13 10 10 10 10 9 8 10 13 13 12 12 12
6 6 5 4 4 4 4 4 4 4 4 4 4 4 4 4 4 4 3 3 3 2 2 1 2 3 4 5 6 6 8 9 8 11 14 15 15 15 16 17 17 18 19 18 16 15 14 14 12 8 7 4 4 5 3 3 3 4 7 10 14 17 19 19 18 15 16 16 18 27 29 25 21 17 16 14 11 11 12 11 11 10 13 14 14 13 12 12
6 6 5 5 5 4 4 4 5 5 5 5 4 4 4 4 4 3 3 2 2 1 0 1 2 3 3 4 5 5 6 8 9 10 12 14 15 15 15 17 18 18 19 20 18 16 15 14 11 9 9 6 5 5 4 2 2 4 8 12 15 17 16 15 12 9 12 14 18 28 30 26 22 18 17 15 12 11 12 12 12 12 14 15 14 13 12 12
6 6 5 5 5 5 5 5 5 5 5 5 5 4 4 4 4 3 3 2 2 1 1 2 3 4 3 3 3 4 5 8 9 9 9 11 13 15 15 17 18 18 19 20 19 17 16 14 11 11 9 7 6 5 2 1 2 4 8 11 13 14 12 9 4 0 6 11 19 28 30 24 20 18 18 17 13 12 13 13 13 12 13 15 15 13 13 12
6 5 5 5 5 5 5 5 5 5 5 5 5 4 4 4 4 4 4 4 4 3 4 4 5 5 5 4 5 5 5 6 7 8 9 11 12 14 15 16 18 18 18 18 18 18 17 15 14 12 9 7 7 4 1 2 2 4 7 8 10 9 7 5 4 4 7 12 20 26 26 21 19 18 17 17 15 12 13 14 14 13 13 14 15 14 13 12
5 5 4 4 4 4 5 5 5 5 5 5 4 4 4 4 4 5 5 6 6 7 7 8 8 8 7 6 5 5 6 7 7 7 9 11 12 13 14 16 18 19 17 16 17 18 18 17 15 13 10 8 6 4 3 3 3 3 4 5 6 5 5 6 7 7 12 18 23 24 22 20 19 18 18 18 16 13 13 13 13 13 12 13 15 14 13 12
4 4 4 4 4 4 5 5 5 5 5 5 5 5 4 4 5 5 7 8 9 10 11 11 11 10 9 9 6 4 5 7 9 8 8 10 13 13 13 15 17 18 17 17 18 20 20 19 16 13 10 9 7 4 3 4 3 1 2 3 3 2 5 7 10 12 18 22 24 23 21 21 19 18 17 17 18 15 14 14 12 13 12 12 15 15 13 12
4 3 3 3 4 4 5 5 6 6 6 6 6 6 5 4 4 6 8 9 10 12 13 12 12 11 11 11 8 6 4 5 8 9 8 9 14 14 13 15 17 17 16 17 21 22 22 21 16 12 11 10 8 5 4 3 3 2 0 1 0 3 5 8 11 16 21 22 22 21 19 19 19 18 17 18 19 17 16 15 13 12 11 10 13 14 13 12
4 3 3 3 4 4 5 6 6 6 6 6 6 7 5 3 4 6 8 9 10 11 12 11 11 11 12 12 11 9 6 4 6 10 10 10 15 16 14 14 16 17 16 18 22 23 22 21 15 12 12 11 9 6 4 4 3 3 1 1 2 3 6 9 11 15 19 19 20 19 16 17 18 17 17 19 19 17 16 15 13 12 11 9 10 14 14 12
3 3 3 3 4 5 6 6 7 7 6 5 6 7 5 4 4 6 7 8 9 10 11 11 11 12 12 11 11 10 8 5 6 9 11 11 14 15 13 13 16 16 16 20 23 22 22 20 14 12 13 11 9 7 5 4 4 4 2 2 3 4 6 10 11 11 14 16 18 17 14 15 18 18 19 21 19 17 16 16 14 12 11 9 10 13 14 14
3 3 3 3 4 5 6 7 7 6 5 4 5 6 6 7 6 7 8 9 10 9 9 10 11 11 9 10 11 11 11 7 6 6 8 10 12 13 13 13 15 16 17 21 22 22 21 19 14 13 13 11 10 9 8 7 8 8 6 4 5 7 6 7 10 11 13 15 17 18 15 14 17 18 21 22 19 17 16 16 14 12 11 11 11 14 14 15
3 3 3 4 4 5 6 7 6 5 4 3 6 8 9 10 10 9 9 9 10 9 8 8 10 10 9 11 12 11 11 9 5 5 6 8 11 12 13 13 15 16 17 19 21 20 19 18 15 12 13 13 12 12 11 8 7 8 8 5 5 8 8 8 7 9 13 15 18 19 16 15 17 18 21 22 20 18 17 15 14 12 11 12 13 15 15 15
3 3 3 4 5 5 6 6 5 5 3 4 7 10 12 12 12 11 10 9 8 9 9 10 12 11 10 12 13 11 11 10 6 6 6 8 10 11 11 12 14 16 17 17 17 19 18 17 16 14 15 16 15 14 12 7 3 4 7 7 7 8 9 9 9 10 13 15 20 21 17 17 19 18 21 22 21 19 17 15 14 12 11 12 14 15 16 17
3 3 3 4 4 5 5 5 5 4 3 3 7 11 13 13 12 12 12 11 11 11 11 13 14 13 12 12 11 11 11 10 8 7 6 7 9 9 9 9 11 14 16 15 14 17 18 18 19 19 17 16 14 13 12 10 6 4 7 8 9 10 11 11 10 13 13 14 21 23 17 17 19 18 20 23 22 21 19 17 16 15 12 12 14 16 17 16
3 3 3 4 4 5 5 5 5 5 3 3 7 10 11 11 11 11 11 10 11 12 12 13 13 13 13 12 11 10 10 11 9 8 7 6 7 7 7 7 8 10 12 14 13 14 17 20 22 21 17 14 13 13 13 12 11 9 8 8 10 11 12 12 11 14 14 14 19 21 16 15 18 18 19 23 24 22 21 20 18 16 14 12 13 14 16 16
4 4 4 4 5 5 5 5 6 6 3 3 5 9 9 10 10 10 10 9 10 11 11 12 13 12 13 12 11 10 9 11 10 8 8 8 7 7 7 7 6 7 9 11 11 12 16 19 20 18 17 15 13 15 15 14 14 13 13 13 13 12 11 12 11 12 15 16 17 18 18 18 18 19 20 23 25 23 22 22 19 17 16 15 13 14 17 18
4 4 4 4 5 4 5 6 6 6 4 4 5 9 9 7 7 8 8 8 9 9 9 10 11 11 11 11 12 11 10 12 11 9 9 9 9 8 8 8 6 5 5 6 7 8 12 12 12 13 16 16 14 15 16 16 15 17 18 18 18 15 11 11 10 10 12 15 17 17 17 19 19 21 24 25 25 25 25 25 23 21 21 18 14 12 16 19
4 4 4 4 5 4 4 5 5 5 6 6 6 8 8 5 5 5 5 6 7 8 9 10 10 11 11 10 11 11 9 9 10 9 8 8 8 7 7 8 6 5 4 1 2 5 7 4 4 8 11 13 14 15 17 18 18 19 20 20 20 17 14 14 14 14 11 15 18 16 14 19 22 23 25 27 27 28 28 28 27 25 24 21 17 14 15 17
4 4 4 4 4 2 3 5 4 5 7 8 8 8 6 4 4 4 3 3 5 7 7 8 9 10 10 9 9 10 9 8 9 9 8 7 4 4 5 5 5 4 4 3 4 4 4 2 2 5 7 10 11 13 16 18 19 19 20 23 23 19 18 19 20 16 11 15 19 16 10 13 21 25 25 27 30 30 29 31 29 28 27 25 23 19 17 17
4 4 4 4 3 1 4 5 5 7 8 8 8 7 5 4 3 4 4 3 4 6 6 7 7 8 10 9 8 7 8 9 8 7 6 5 3 3 5 1 3 4 4 5 5 3 1 2 3 4 5 8 9 11 13 15 15 17 19 22 22 20 20 21 21 17 13 14 16 17 14 9 14 22 24 26 32 32 32 32 31 30 30 28 26 23 21 19
5 5 4 4 3 0 4 7 7 8 7 6 6 5 4 3 3 4 4 3 3 4 4 5 6 8 10 9 7 6 6 6 7 5 3 4 4 5 3 3 2 3 5 5 4 3 4 4 4 4 6 8 9 11 13 14 15 17 19 18 17 17 16 18 20 20 17 15 10 15 20 14 14 19 20 24 31 33 34 35 34 33 32 30 28 26 24 21
5 5 5 4 2 1 5 9 10 9 7 5 4 4 2 1 1 1 2 2 2 3 3 4 5 6 7 6 7 7 7 5 6 6 5 5 6 4 3 3 2 1 3 4 6 5 5 4 4 4 4 6 7 8 12 15 17 20 22 18 16 13 11 11 13 17 18 14 9 13 18 12 13 18 15 20 31 35 36 37 36 36 34 32 31 28 26 23
6 6 6 4 2 2 7 11 12 10 8 6 4 3 1 1 1 1 2 2 2 2 3 4 4 4 3 3 3 3 6 6 6 7 6 6 7 4 2 3 2 2 3 5 6 6 6 5 5 4 3 4 4 4 9 15 16 19 20 18 18 15 12 8 8 11 12 9 11 16 17 10 9 16 14 18 27 29 30 33 36 37 36 35 32 30 28 26
6 6 6 5 3 4 8 11 12 11 9 6 3 2 1 0 1 1 1 1 1 2 3 4 4 4 3 0 2 2 3 5 4 5 5 4 4 4 4 1 1 2 2 3 4 6 6 5 4 3 3 5 4 3 6 11 13 16 16 14 15 11 9 5 5 6 4 6 13 16 17 13 6 12 13 14 16 13 15 23 32 37 39 38 35 32 31 28
7 7 7 6 5 6 9 12 13 11 9 6 3 2 1 0 1 1 1 1 2 2 2 3 3 4 2 2 4 4 4 5 3 3 5 5 4 5 6 2 3 1 2 2 3 4 3 3 2 2 3 5 5 3 3 9 11 14 13 14 12 4 7 6 5 3 4 4 7 9 13 16 11 11 10 9 12 13 13 17 21 28 36 39 37 35 32 30
7 7 7 7 6 7 11 12 13 12 9 6 3 2 2 1 1 1 1 1 2 2 1 2 3 1 1 4 6 6 6 4 2 2 4 5 4 4 7 4 1 1 3 4 4 2 1 3 5 2 1 4 4 3 3 8 11 13 14 16 10 4 7 4 3 2 5 5 7 9 8 15 18 17 14 15 18 18 19 18 15 19 28 36 38 36 33 32
7 7 8 8 7 8 11 13 13 12 9 6 3 2 3 3 2 2 2 1 2 3 1 1 2 1 3 5 7 8 7 5 3 2 4 5 4 3 4 5 4 4 5 5 6 4 2 2 4 4 3 4 4 3 2 4 9 13 16 18 11 4 5 1 1 2 5 6 10 12 8 11 14 14 13 16 17 18 21 21 17 16 21 30 36 37 35 33
7 7 8 9 9 9 11 14 14 12 9 6 4 4 5 5 4 3 4 2 1 3 1 2 2 2 6 6 8 9 9 7 4 2 5 7 6 5 5 5 5 4 5 5 6 6 3 2 6 9 9 8 7 3 2 2 3 9 15 19 17 11 5 3 3 3 2 1 1 6 8 6 6 5 7 11 12 15 17 18 19 17 16 23 31 37 40 37
7 7 8 9 9 9 12 15 15 13 10 6 4 6 7 6 4 2 3 3 2 2 2 2 1 5 8 7 9 10 9 6 5 4 5 6 5 4 5 5 5 4 4 3 4 5 3 3 7 10 9 7 5 2 3 5 2 4 11 17 19 18 15 10 7 4 2 1 3 8 9 6 5 7 11 14 15 16 14 13 17 18 16 19 23 30 36 38
7 7 8 9 10 10 12 16 16 14 10 6 6 7 8 7 4 3 1 2 2 3 2 1 3 7 9 8 8 9 7 5 6 7 6 5 4 3 3 4 5 5 4 2 3 4 3 3 4 5 6 6 7 5 3 6 5 5 6 10 13 15 16 14 10 7 4 2 2 7 9 7 6 9 11 12 13 13 10 10 14 16 17 18 19 22 29 35
7 8 9 10 11 11 12 16 17 14 10 8 8 9 8 7 5 3 2 2 2 3 2 1 4 6 8 7 7 7 6 6 7 7 6 5 4 4 3 3 4 6 6 4 5 5 4 4 2 3 6 5 6 7 6 5 6 6 7 7 9 11 14 15 8 6 4 3 4 8 8 6 5 7 9 10 9 8 7 8 12 15 17 16 15 17 23 31
8 9 10 11 11 11 13 16 17 15 11 8 9 10 9 7 5 2 1 2 3 1 1 1 3 4 7 7 6 6 5 6 7 5 6 6 3 3 2 3 4 6 7 5 5 6 6 4 1 3 7 5 2 4 6 6 6 6 6 7 7 6 11 16 11 4 1 2 3 5 5 4 5 8 11 11 8 5 4 4 9 11 13 12 11 13 16 25
9 10 11 11 12 13 14 16 17 16 12 9 9 11 11 8 7 4 2 3 4 1 0 2 3 4 6 8 6 7 5 6 7 6 6 6 3 3 2 3 5 6 7 6 5 6 7 4 1 4 7 4 1 3 5 5 5 4 3 5 3 3 7 15 16 12 7 2 3 3 2 0 2 7 9 12 11 6 3 1 6 8 10 12 12 12 14 21
11 12 11 12 13 14 15 17 18 17 14 10 8 10 11 10 8 5 4 5 4 2 2 4 3 3 5 7 7 7 6 7 7 5 5 5 4 3 1 3 5 6 7 7 6 6 6 5 5 8 9 4 4 10 11 8 6 5 1 1 4 4 2 8 13 14 9 3 2 2 2 1 1 4 6 10 11 7 1 1 4 7 10 12 14 15 15 20
12 12 12 13 14 15 16 17 19 18 16 12 8 8 10 11 10 7 6 6 5 3 3 4 4 4 5 6 6 6 6 7 7 5 5 5 4 4 3 2 3 5 6 7 7 6 6 6 8 9 7 3 5 8 10 9 10 12 10 9 12 11 5 2 6 10 11 8 4 2 2 1 1 2 2 7 9 8 4 3 5 6 8 8 9 12 13 17
12 13 13 14 15 15 16 17 18 19 17 13 9 8 8 10 12 10 9 9 7 6 6 6 5 5 5 6 6 6 6 7 7 6 5 5 5 5 2 2 4 6 8 7 7 7 6 6 6 5 4 3 4 3 5 7 4 6 10 13 14 16 12 6 5 6 10 13 10 5 2 2 4 5 4 5 9 9 5 4 6 7 5 4 5 6 8 12
12 14 15 15 15 15 16 16 17 19 18 15 12 11 9 9 12 11 10 10 8 7 8 7 6 6 5 6 7 6 6 6 6 5 4 5 6 5 2 3 5 7 8 7 7 8 7 5 4 4 2 6 8 7 4 4 2 1 4 9 13 17 17 11 8 6 6 11 13 6 2 2 7 8 6 5 8 9 8 5 6 6 7 7 8 7 6 7
13 16 16 16 16 16 16 16 16 17 18 16 15 13 11 9 9 10 10 11 10 9 10 9 7 6 7 7 7 6 6 5 6 6 6 5 5 4 3 4 5 7 8 7 7 7 5 4 4 3 2 5 7 6 7 5 3 1 2 8 12 14 15 12 8 8 6 7 12 9 1 0 4 7 6 5 5 7 8 6 5 6 7 7 8 8 8 6
14 17 17 17 18 17 15 15 16 16 16 17 16 14 11 8 8 10 12 12 10 10 11 10 9 8 8 9 9 8 6 5 6 7 7 6 5 4 3 4 5 6 7 7 7 6 4 4 4 4 4 3 2 3 7 10 6 2 3 8 12 15 16 12 6 8 8 7 10 10 7 4 3 6 5 4 4 4 4 4 5 5 5 5 7 6 6 6
14 18 18 18 19 18 17 16 17 17 17 16 16 14 11 8 8 11 14 13 12 12 11 10 9 9 9 10 8 8 7 5 5 6 6 6 5 4 3 3 3 4 6 7 7 5 1 2 4 4 4 2 1 4 6 13 12 7 6 10 13 16 19 13 3 4 5 6 6 7 9 9 5 4 2 2 1 2 4 6 6 6 5 5 6 5 4 4
13 18 20 19 18 17 19 19 18 18 18 17 15 14 12 9 7 9 14 14 12 13 13 12 11 11 12 11 9 8 8 6 5 5 6 6 6 4 3 3 4 4 5 5 4 1 2 3 3 3 2 3 3 4 2 9 14 16 14 13 14 14 16 12 4 5 4 3 5 8 9 9 5 2 4 6 6 7 7 8 8 7 6 5 6 5 3 2
12 16 20 21 19 16 18 20 19 18 17 16 14 13 13 10 7 7 11 13 12 12 13 12 12 12 12 12 11 9 8 8 7 6 6 7 6 5 5 5 5 3 2 2 1 1 1 1 1 1 3 4 3 3 3 3 8 15 20 18 15 10 10 14 10 6 3 1 5 8 8 7 6 6 7 7 7 8 9 10 9 8 6 5 5 5 3 3
11 14 18 22 22 18 17 18 20 19 18 16 14 14 14 12 10 9 11 12 13 13 13 13 12 12 13 12 11 10 9 8 8 8 8 7 7 7 6 4 2 2 2 1 2 2 2 1 2 2 3 3 3 2 3 4 3 6 12 14 11 7 3 11 12 8 7 6 6 6 6 7 8 7 6 7 8 9 11 11 9 7 6 5 6 6 5 4
11 12 16 20 23 22 19 17 17 18 18 18 16 15 14 13 12 13 13 13 14 15 15 13 11 11 13 12 10 11 10 8 8 8 8 7 8 7 5 5 4 3 2 1 2 4 3 1 1 2 2 2 2 1 6 9 9 7 8 10 11 8 1 6 10 9 7 4 3 3 3 5 7 6 6 7 7 9 10 10 9 7 6 6 6 6 5 3
10 12 14 17 21 23 23 21 19 16 16 17 18 16 14 12 12 13 14 14 15 16 15 14 12 11 13 13 10 11 11 9 8 8 8 8 6 4 4 5 4 4 2 0 2 3 4 2 1 2 2 2 2 2 8 13 13 12 12 13 13 11 6 2 5 9 8 3 2 4 4 3 6 6 6 6 6 7 7 7 7 6 5 6 6 6 5 4
11 12 13 15 17 21 23 24 22 20 17 16 17 16 14 11 9 12 13 13 14 15 13 13 12 11 13 14 12 10 10 10 9 8 8 6 5 4 4 4 5 6 4 2 2 2 3 2 2 3 2 1 2 4 11 14 11 10 13 14 13 11 10 7 3 6 8 4 1 4 5 4 8 7 6 6 6 6 6 5 5 4 5 5 6 6 5 5
Wind_Direction
50 58 61 61 60 59 54 48 46 43 43 42 41 42 42 41 34 10 283 252 238 235 228 225 225 226 228 228 225 222 221 222 219 214 209 204 206 211 205 203 206 203 205 204 200 200 192 184 179 175 160 143 135 127 128 122 104 85 68 74 80 104 152 170 190 215 221 215 210 202 202 203 201 192 176 175 172 171 183 165 154 161 167 172 184 180 164 158
33 42 46 45 45 48 48 46 43 40 39 38 37 36 33 30 24 17 3 315 250 243 236 232 228 224 224 224 223 219 218 219 218 214 209 205 204 210 207 203 203 200 202 201 200 203 196 188 181 167 149 137 134 129 127 119 98 82 64 66 73 98 148 176 197 226 227 223 222 211 208 211 209 203 185 181 182 177 183 170 159 171 176 171 181 177 163 156
20 25 28 30 31 30 31 31 30 29 29 29 30 30 32 34 30 25 16 1 328 250 236 236 232 228 223 220 219 216 214 215 217 214 208 204 202 207 206 202 203 201 203 202 201 206 198 188 179 160 146 141 143 132 115 56 13 1 20 38 32 325 294 260 242 245 235 224 225 217 211 215 212 207 198 187 188 191 186 176 168 174 179 174 176 172 162 155
17 15 15 16 19 20 21 19 19 19 19 19 19 21 25 31 35 38 35 24 10 338 249 234 230 228 223 219 214 211 211 211 214 213 208 205 202 203 203 202 203 202 205 203 202 207 197 184 173 156 149 152 156 123 34 348 327 317 332 343 336 316 300 287 275 265 251 230 224 220 214 216 213 208 206 193 192 194 174 175 176 168 172 173 168 165 160 154
18 15 12 11 13 13 13 13 14 14 14 14 12 14 18 21 23 28 36 42 45 37 354 241 225 219 219 217 212 209 206 205 210 209 206 204 201 201 201 202 202 201 204 204 203 204 195 183 169 155 153 158 175 28 348 323 314 308 317 327 325 315 304 295 287 271 258 239 221 219 216 215 213 209 211 199 179 149 142 157 171 155 156 170 165 161 158 155
22 18 14 13 14 13 13 13 12 12 13 11 11 13 13 13 12 14 16 22 38 55 71 194 222 213 212 211 210 207 198 199 205 205 203 203 201 199 198 200 200 200 202 202 204 200 193 185 170 156 153 166 231 298 326 304 297 306 314 324 321 313 307 299 290 274 259 244 222 214 213 214 213 210 209 199 164 135 135 143 154 143 142 167 173 164 158 158
31 25 20 19 18 18 18 18 19 20 17 13 13 14 12 11 10 9 4 3 12 28 62 124 184 203 207 206 208 205 196 198 204 202 201 201 202 200 196 197 198 197 199 201 201 197 195 191 182 173 165 176 238 262 312 291 283 311 318 322 319 310 307 302 292 276 258 245 222 208 206 209 211 212 206 196 173 153 149 147 151 148 145 165 181 173 161 159
33 29 25 22 21 23 23 25 26 25 24 22 19 15 15 15 15 11 4 358 355 4 31 99 159 190 201 199 203 204 199 199 201 201 203 201 200 202 199 196 195 195 195 198 197 196 198 196 195 192 179 186 242 266 293 267 279 327 327 325 321 313 310 304 293 272 249 239 217 201 199 203 205 210 206 196 182 160 156 156 154 156 154 163 180 180 168 164
29 27 25 20 20 21 22 23 22 24 23 22 20 19 19 19 20 19 17 9 356 10 44 110 127 152 176 184 192 197 197 198 197 197 203 204 199 200 200 196 194 193 193 196 196 196 197 199 202 189 181 196 229 265 280 256 309 338 334 330 323 317 315 306 294 266 235 227 209 194 191 197 199 203 203 196 187 166 162 159 150 156 157 161 176 183 174 171
22 21 19 17 16 17 18 17 15 17 17 18 20 21 23 26 28 32 40 39 30 51 88 121 120 123 141 152 159 172 187 195 203 205 201 202 200 198 197 195 194 193 194 196 194 196 197 198 198 184 181 202 220 253 268 156 353 342 332 328 323 319 320 318 324 168 202 205 198 186 181 190 195 197 199 196 188 172 167 159 146 150 156 161 173 183 180 175
13 11 12 13 13 12 10 10 9 9 11 15 19 24 33 38 46 56 61 63 67 79 86 97 101 100 110 109 114 142 173 186 207 218 208 201 199 199 196 192 192 193 195 195 192 194 195 196 194 185 181 197 213 230 184 114 42 343 326 323 323 327 340 8 62 117 161 173 178 172 170 183 192 195 198 198 191 178 173 162 148 148 153 162 173 184 185 179
7 4 5 10 12 8 6 4 3 3 7 13 20 31 43 51 63 70 77 80 81 85 89 93 93 91 87 78 94 135 167 185 198 211 209 202 198 200 196 190 190 191 190 190 189 188 190 194 194 187 181 191 209 215 164 124 81 353 327 321 325 348 31 62 90 126 152 156 158 160 169 183 191 196 197 200 199 186 180 170 157 154 152 160 174 184 187 187
8 3 3 11 12 6 2 0 358 360 6 14 24 35 47 60 71 78 87 91 89 87 91 94 90 85 76 62 63 109 156 192 201 201 200 197 197 199 197 191 189 189 188 183 181 183 188 193 194 189 184 192 207 203 174 143 115 37 350 346 334 62 85 96 107 126 144 150 154 162 178 185 188 196 197 202 203 195 190 180 167 166 159 160 177 185 187 192
11 4 7 13 10 5 0 357 355 359 9 18 29 40 51 68 80 87 93 96 95 91 93 93 85 79 75 64 57 72 113 179 197 196 188 186 193 196 195 192 188 188 187 180 178 184 190 192 194 191 185 194 202 191 182 168 144 154 43 7 108 115 115 121 121 133 144 152 161 171 184 187 188 196 201 204 203 200 198 187 176 179 173 167 181 188 188 192
9 1 10 12 7 3 357 355 354 1 13 24 42 50 51 64 89 91 90 93 97 96 92 91 89 83 75 65 59 67 87 130 167 180 180 179 188 192 191 188 187 188 184 179 180 187 192 193 194 190 185 191 194 182 177 178 174 183 188 206 185 146 138 142 139 142 150 158 169 177 186 192 197 202 204 204 201 202 203 196 186 184 186 186 194 193 189 192
3 359 12 10 3 357 354 353 355 5 14 29 57 63 56 66 95 92 85 86 95 102 93 86 90 86 76 70 66 68 81 111 148 165 173 177 185 189 188 184 183 185 183 182 184 188 194 195 195 193 190 189 187 180 175 183 197 201 213 227 202 187 160 156 161 164 167 172 177 185 190 197 204 206 205 204 202 202 203 201 194 189 195 202 209 201 194 197
358 359 12 7 358 355 354 354 358 11 22 43 76 79 75 83 94 92 90 88 90 97 95 86 86 86 84 84 75 69 77 97 137 153 166 175 182 184 185 184 181 182 184 184 186 191 195 197 197 197 196 193 188 185 189 201 208 203 205 221 216 208 198 180 182 189 193 194 193 196 201 207 209 205 202 204 204 204 202 199 196 196 203 210 214 205 200 205
355 2 10 2 355 356 356 356 1 14 36 78 98 95 92 93 93 95 96 94 89 84 85 87 93 93 84 80 76 71 73 80 113 142 159 175 181 181 182 185 185 184 186 187 190 194 197 199 198 196 197 200 197 196 203 216 222 214 212 230 229 218 225 223 215 212 209 212 207 203 209 213 210 206 205 206 205 204 202 198 198 204 209 212 212 205 206 210
354 2 5 358 356 357 357 358 357 8 42 100 114 106 100 96 90 91 93 92 92 87 84 87 95 98 84 76 72 69 71 70 90 135 159 176 180 182 184 188 189 186 188 191 195 198 201 203 202 200 204 209 208 206 213 224 242 231 233 254 258 253 257 258 255 241 221 215 211 208 212 212 208 207 207 207 206 204 201 197 199 208 215 215 212 208 211 213
349 357 356 356 356 356 358 354 347 358 37 106 127 117 106 101 95 92 92 88 87 89 89 90 93 96 90 82 73 67 73 74 83 112 138 168 175 178 184 190 192 191 192 195 200 205 207 210 211 209 212 216 215 217 224 228 228 234 240 250 262 272 277 282 279 257 237 222 217 216 219 216 213 215 210 207 207 204 201 200 202 207 215 218 216 215 216 215
342 347 347 349 353 357 2 354 350 2 32 106 140 136 115 105 103 92 88 85 83 86 89 92 95 98 96 89 82 77 73 76 81 88 97 130 153 160 167 168 174 189 198 201 207 213 213 216 216 214 217 218 218 226 234 235 235 242 245 246 257 269 279 290 282 260 251 243 233 231 232 226 221 222 217 210 210 210 206 205 205 206 212 221 223 222 221 216
332 336 340 345 350 1 11 7 10 19 36 84 134 147 126 105 103 94 88 84 81 85 90 95 94 93 93 88 88 84 79 82 81 81 91 105 119 125 131 134 146 171 193 204 213 223 225 226 223 220 225 225 224 230 236 241 241 242 246 248 252 259 276 287 283 271 261 254 251 246 238 234 230 227 224 217 216 217 215 213 211 212 218 223 227 226 222 216
320 324 333 341 349 5 26 27 29 37 64 89 114 149 143 113 102 97 93 88 83 87 94 100 94 89 91 88 85 84 90 94 85 81 88 96 99 96 107 113 119 139 164 195 214 234 241 240 232 229 234 237 239 239 241 245 243 242 247 248 248 255 274 284 296 304 273 253 255 253 243 239 234 228 226 223 221 219 219 219 216 218 224 227 232 233 224 216
307 313 325 334 348 10 46 45 44 64 96 109 116 145 152 126 98 91 93 95 94 97 103 103 94 89 91 87 80 81 90 96 94 90 90 104 92 70 99 109 93 96 102 135 248 264 248 233 218 220 230 238 240 240 243 246 245 246 248 245 243 251 274 283 292 301 276 250 251 247 246 244 234 230 229 225 223 222 219 220 217 215 219 223 229 231 222 213
293 298 313 325 343 18 84 73 72 98 112 116 118 128 134 117 88 77 88 99 101 112 116 108 97 89 88 86 84 82 79 85 101 96 92 112 85 46 112 107 58 72 61 10 328 293 233 196 220 226 229 235 237 235 236 241 246 250 247 243 246 255 275 282 285 285 258 245 249 235 234 250 234 232 234 227 225 226 222 222 221 217 217 218 222 222 213 206
284 283 297 314 332 35 124 114 115 127 127 124 118 114 111 103 82 75 84 89 102 114 108 100 102 95 86 84 86 83 74 79 94 93 87 90 64 98 132 49 27 72 37 359 329 308 317 341 312 282 256 243 242 233 229 232 238 245 243 240 249 261 271 272 274 272 247 242 252 232 224 253 246 235 234 229 228 229 226 225 226 223 220 218 217 218 211 204
279 271 281 297 316 174 154 147 144 145 143 135 121 117 116 103 84 81 86 82 97 111 100 92 97 93 87 78 70 73 73 77 80 86 103 73 76 125 110 17 48 59 18 5 347 342 353 352 339 304 269 246 245 234 227 226 225 235 239 239 250 266 276 280 280 275 258 247 247 227 223 244 266 251 238 230 229 231 229 229 230 228 226 222 217 216 213 209
276 265 267 279 295 213 174 165 162 162 161 153 139 144 144 81 64 75 78 89 87 97 99 95 90 83 83 75 67 68 67 72 71 73 94 81 82 114 75 63 125 16 354 339 335 350 351 334 335 318 271 245 244 234 226 223 224 232 236 240 254 273 286 281 267 255 245 238 224 215 217 232 265 260 245 228 228 232 235 235 234 231 230 227 221 216 214 213
272 262 259 262 262 199 181 173 173 178 177 168 161 172 198 36 128 82 52 95 96 108 95 81 84 67 43 60 83 77 65 73 74 67 71 74 80 80 45 94 137 299 311 317 328 353 356 329 326 329 299 267 249 239 228 220 223 228 230 240 252 269 278 249 222 233 233 233 233 223 212 212 264 266 247 221 225 236 242 240 237 234 233 231 227 220 216 216
270 261 254 250 236 197 184 178 180 186 181 170 170 192 251 330 143 69 56 81 41 108 92 52 61 50 15 49 127 138 98 84 73 61 55 50 69 43 11 84 126 338 359 359 353 3 357 335 318 298 281 283 276 275 230 211 216 223 229 245 250 270 298 294 293 282 251 249 254 244 229 220 262 280 253 228 236 262 268 249 239 236 234 232 230 225 220 218
270 260 248 240 229 201 187 180 181 183 176 171 178 194 215 94 104 58 94 77 23 98 93 14 15 33 28 186 156 147 139 113 86 72 63 53 74 55 32 84 198 320 33 15 357 8 3 358 351 262 267 288 290 305 227 198 209 226 239 249 246 296 4 2 349 263 223 254 269 274 247 223 229 266 271 269 271 277 277 264 250 243 238 232 229 228 224 220
271 257 244 235 226 207 194 185 179 177 172 168 165 168 181 143 107 106 135 100 31 33 329 346 334 319 149 177 169 160 159 144 124 106 89 81 101 81 45 57 130 25 29 7 353 12 105 68 66 89 300 295 286 300 235 201 212 228 238 237 233 36 27 3 27 223 239 252 269 289 252 216 234 262 276 282 279 267 261 263 263 256 246 237 231 228 226 223
274 256 242 232 225 211 201 190 180 176 169 158 147 162 185 172 140 116 109 141 24 23 11 311 314 235 154 172 175 164 163 158 140 122 123 118 115 100 53 45 43 29 33 24 5 14 109 106 59 56 18 349 336 316 247 217 226 228 229 225 210 90 53 305 292 284 279 266 267 270 238 222 249 268 273 272 275 271 259 254 253 255 250 242 236 230 227 225
279 257 240 231 227 217 204 194 184 179 174 164 160 174 180 169 153 117 70 62 21 12 347 302 309 166 149 162 170 166 170 169 161 158 146 139 119 96 86 63 45 30 27 22 13 20 46 40 23 24 17 12 9 351 206 201 238 228 225 222 212 197 194 243 239 224 253 313 251 196 196 233 248 237 268 275 281 285 272 254 245 244 243 239 237 233 229 228
283 258 240 231 228 218 206 199 190 186 186 184 185 186 182 168 148 121 66 72 56 20 359 332 295 166 154 157 164 171 180 183 186 190 165 148 133 102 85 65 56 46 19 7 14 18 29 49 39 31 26 34 41 37 182 176 157 195 212 214 212 209 215 243 269 258 247 44 123 178 207 260 267 257 279 284 286 293 288 257 236 235 237 235 233 231 230 229
284 259 242 231 228 218 208 204 198 195 197 199 196 192 186 168 130 85 86 123 81 41 23 282 202 165 154 156 166 175 183 191 187 178 162 141 119 105 79 49 48 45 37 38 30 23 30 41 44 46 51 78 89 81 147 186 167 131 158 195 206 205 210 235 270 294 293 289 216 222 241 268 270 268 282 289 293 297 287 249 226 225 231 237 240 237 234 233
282 257 241 231 225 219 210 207 204 200 199 201 198 190 179 164 137 87 83 155 125 54 24 219 181 163 161 160 163 175 185 188 183 176 172 158 113 97 88 54 45 34 29 32 18 9 7 8 34 56 43 64 95 97 119 153 159 142 126 151 177 176 187 213 252 323 328 291 243 242 258 279 285 280 289 298 304 311 292 241 215 215 221 232 246 248 244 238
278 253 240 229 224 218 210 208 205 200 196 199 200 192 176 163 163 157 135 168 168 110 11 201 159 159 177 170 160 175 194 194 192 195 192 183 140 108 110 66 46 25 17 17 3 348 349 0 64 32 24 41 111 136 123 105 108 124 116 135 175 184 180 194 216 260 284 278 279 264 261 277 313 314 316 321 321 338 339 239 203 201 210 224 247 259 255 244
271 253 239 228 223 217 210 206 203 199 197 193 196 194 183 173 180 199 212 192 184 173 243 199 153 139 176 183 178 184 196 199 197 197 193 189 167 140 118 46 43 26 16 11 352 338 341 344 334 344 357 17 47 70 84 91 106 119 127 142 180 253 195 186 199 204 190 214 273 290 294 210 350 342 349 346 328 332 35 163 194 192 203 214 229 244 249 242
265 254 240 228 224 216 210 207 202 202 201 193 193 195 192 190 190 207 235 219 202 179 169 186 171 135 163 182 184 184 187 190 193 194 192 188 176 172 186 26 38 27 14 5 346 338 336 332 339 343 340 346 66 68 63 59 65 70 97 85 36 1 233 197 202 199 186 180 204 234 275 215 21 349 2 358 330 310 355 158 202 210 219 225 233 238 237 234
258 250 237 227 224 217 212 210 207 208 208 202 198 195 200 205 199 204 230 230 220 203 194 208 205 180 170 178 181 187 189 186 188 192 189 184 186 192 221 307 354 2 0 356 348 344 338 323 332 350 1 41 102 90 78 68 52 48 50 36 21 13 357 266 221 213 208 204 206 256 273 255 328 282 308 355 336 303 279 220 217 229 231 235 249 249 242 240
249 240 231 224 223 217 212 212 212 215 214 211 209 204 211 217 207 204 218 225 225 220 220 224 211 198 191 181 179 186 191 188 187 193 192 189 195 195 206 287 331 344 342 347 352 346 337 321 328 2 55 129 165 159 105 89 57 25 37 32 18 8 353 310 247 235 221 212 224 270 301 283 296 267 241 313 320 303 294 252 242 258 269 292 308 290 260 251
238 228 225 222 220 215 210 212 215 216 217 219 218 215 225 228 215 211 217 219 213 208 215 216 203 202 199 180 177 184 192 192 190 199 205 195 198 205 232 302 330 340 335 341 352 344 335 331 343 7 102 164 173 186 177 114 115 241 14 15 7 2 350 316 266 257 243 215 218 244 337 266 283 283 262 281 306 310 316 300 272 291 325 337 337 341 325 271
226 218 221 220 218 216 214 216 217 216 220 224 218 215 226 235 227 224 222 216 204 199 213 221 220 224 216 201 203 207 211 209 194 194 203 203 207 216 244 300 321 325 324 332 347 348 350 6 23 39 91 155 163 183 198 184 157 160 1 357 351 350 349 332 276 233 225 214 205 202 167 330 292 293 276 275 296 307 314 306 296 315 337 341 338 340 340 312
218 211 217 221 220 219 220 223 222 219 225 227 220 220 227 229 233 233 223 213 204 203 217 230 239 242 228 214 216 219 223 227 204 193 198 202 207 215 240 288 307 320 330 338 345 347 359 30 55 82 102 138 191 254 223 200 184 185 308 329 338 347 354 345 289 218 207 207 196 184 161 149 247 271 267 273 282 291 319 336 335 335 332 336 344 344 339 331
215 208 214 222 225 225 225 228 227 226 230 230 225 228 232 228 233 228 216 210 208 211 224 238 245 239 220 211 215 212 210 219 214 207 210 214 219 225 246 280 308 334 338 338 338 335 325 117 93 90 92 108 354 324 244 215 210 216 260 298 313 336 353 350 297 182 171 172 159 154 157 167 203 247 225 173 132 87 56 42 28 12 358 346 354 6 4 352
222 212 212 216 223 228 231 235 236 235 236 233 230 235 237 234 237 221 209 212 218 222 233 243 244 238 222 212 211 204 200 209 216 219 227 227 224 222 233 274 307 321 325 328 335 346 146 138 117 88 31 345 342 0 302 233 231 232 244 276 292 315 352 10 60 108 118 157 139 137 161 179 188 146 115 114 99 87 77 68 60 47 31 14 8 16 20 35
234 220 214 212 215 223 229 234 238 241 242 239 238 242 239 234 240 225 209 214 224 226 232 238 240 239 228 216 213 206 197 202 210 221 229 222 221 236 255 278 293 292 304 346 36 75 68 81 80 354 335 327 321 346 352 292 252 240 245 262 276 292 355 24 43 77 95 150 145 146 165 179 159 127 111 106 98 91 80 72 69 64 52 45 49 57 65 76
248 231 220 216 216 218 224 229 234 239 244 247 246 247 244 243 246 236 219 218 226 228 230 236 240 236 225 217 218 214 205 204 212 221 225 227 242 261 262 251 219 164 159 117 49 16 355 76 54 340 305 320 342 310 255 253 243 235 242 252 259 261 359 29 28 50 88 102 115 131 152 146 125 115 109 104 97 88 76 70 73 72 68 72 76 82 91 98
258 245 231 223 220 221 222 224 229 234 240 246 247 246 247 253 251 236 225 224 230 231 230 236 245 239 226 218 220 226 225 226 232 232 233 246 263 263 238 204 181 162 164 153 24 9 5 75 52 335 298 352 18 214 215 223 229 228 224 226 234 237 234 30 17 27 53 74 75 65 83 114 108 100 97 91 83 78 71 70 78 81 80 81 78 80 92 105
264 254 244 233 226 225 226 227 229 231 235 239 242 242 247 256 252 237 229 230 234 236 236 239 241 233 224 221 225 234 237 241 250 250 250 261 265 246 223 219 220 217 204 152 5 0 10 21 328 314 330 33 52 195 209 213 223 228 220 215 220 220 219 294 5 24 25 0 312 320 334 61 93 91 84 77 75 77 73 70 77 83 86 85 81 82 93 112
269 262 254 245 235 229 230 232 233 233 235 235 234 236 241 245 240 231 229 229 230 233 239 241 236 226 224 227 230 233 236 241 247 246 246 250 245 240 258 273 256 237 233 254 284 305 334 343 332 319 312 65 93 203 208 206 211 218 215 214 219 221 228 246 289 10 4 356 214 274 310 45 78 81 77 74 76 82 87 90 90 95 99 97 98 103 114 133
Height
3148 3147 3147 3147 3147 3147 3147 3147 3147 3147 3146 3146 3146 3146 3146 3146 3145 3145 3145 3145 3145 3144 3144 3144 3144 3144 3144 3145 3146 3147 3148 3149 3149 3151 3152 3153 3153 3154 3155 3156 3157 3158 3158 3159 3160 3160 3161 3162 3162 3162 3163 3164 3164 3164 3165 3165 3165 3165 3165 3165 3165 3166 3166 3166 3167 3168 3168 3168 3168 3169 3170 3171 3171 3172 3173 3174 3174 3175 3176 3176 3177 3178 3179 3180 3181 3183 3183 3183
3148 3148 3147 3147 3147 3147 3147 3147 3147 3147 3147 3146 3146 3146 3146 3145 3145 3145 3145 3145 3144 3144 3144 3144 3143 3143 3144 3144 3145 3146 3146 3147 3148 3149 3151 3152 3153 3153 3155 3156 3156 3157 3158 3158 3159 3160 3161 3162 3162 3163 3163 3164 3164 3165 3165 3165 3165 3165 3166 3166 3166 3166 3166 3167 3167 3167 3167 3168 3168 3169 3170 3170 3171 3172 3173 3174 3174 3175 3176 3176 3177 3178 3179 3180 3181 3183 3184 3184
3148 3147 3147 3147 3147 3147 3147 3147 3147 3147 3146 3146 3146 3146 3146 3145 3145 3145 3144 3144 3144 3144 3143 3143 3143 3143 3143 3143 3143 3144 3145 3146 3147 3148 3149 3151 3152 3153 3154 3155 3156 3157 3157 3158 3159 3160 3161 3162 3162 3163 3164 3164 3165 3165 3165 3165 3165 3165 3165 3166 3166 3166 3166 3167 3167 3167 3167 3168 3168 3169 3169 3170 3171 3172 3172 3173 3174 3175 3176 3177 3177 3178 3179 3180 3181 3183 3184 3185
3148 3148 3147 3147 3147 3147 3147 3147 3147 3147 3146 3146 3146 3146 3145 3145 3145 3144 3144 3144 3143 3143 3143 3143 3142 3142 3142 3142 3143 3143 3144 3145 3146 3147 3148 3150 3151 3152 3153 3154 3155 3156 3157 3158 3159 3160 3161 3162 3162 3163 3164 3164 3165 3165 3165 3165 3165 3165 3165 3165 3165 3165 3165 3166 3167 3167 3167 3168 3168 3168 3168 3169 3170 3172 3172 3173 3174 3175 3177 3178 3179 3179 3181 3181 3182 3184 3185 3186
3148 3148 3148 3148 3148 3147 3147 3147 3147 3147 3147 3146 3146 3146 3145 3145 3144 3144 3144 3143 3143 3143 3142 3142 3142 3142 3142 3142 3142 3142 3143 3144 3145 3146 3147 3149 3150 3151 3152 3153 3154 3155 3156 3157 3158 3160 3161 3162 3162 3163 3163 3164 3164 3165 3165 3165 3165 3164 3164 3164 3164 3163 3164 3165 3166 3166 3166 3167 3168 3168 3168 3169 3170 3171 3172 3173 3175 3176 3177 3178 3180 3181 3182 3183 3183 3185 3186 3186
3149 3148 3148 3148 3148 3148 3148 3147 3147 3147 3147 3146 3146 3146 3145 3145 3144 3144 3143 3143 3143 3142 3142 3142 3141 3141 3141 3141 3141 3142 3142 3144 3144 3145 3146 3148 3149 3150 3151 3152 3153 3155 3156 3157 3158 3159 3161 3161 3162 3163 3164 3164 3164 3165 3164 3164 3164 3164 3163 3163 3163 3162 3162 3162 3163 3163 3162 3164 3166 3166 3168 3169 3170 3171 3172 3174 3175 3177 3178 3178 3180 3181 3182 3184 3185 3186 3186 3187
3149 3149 3148 3148 3148 3148 3148 3148 3147 3147 3147 3147 3146 3146 3145 3145 3144 3144 3143 3143 3142 3142 3142 3141 3141 3141 3141 3141 3141 3141 3142 3143 3144 3145 3146 3146 3148 3149 3150 3151 3153 3154 3155 3156 3158 3159 3160 3161 3162 3163 3164 3164 3164 3164 3164 3164 3164 3163 3163 3162 3162 3161 3160 3159 3159 3159 3159 3160 3163 3164 3167 3169 3170 3172 3172 3174 3176 3176 3177 3178 3180 3181 3182 3184 3186 3186 3187 3188
3149 3149 3149 3148 3148 3148 3148 3148 3148 3147 3147 3147 3146 3146 3145 3145 3144 3144 3143 3142 3142 3141 3141 3141 3140 3140 3140 3141 3141 3141 3142 3143 3143 3144 3145 3146 3147 3148 3150 3151 3152 3153 3154 3155 3157 3158 3160 3161 3162 3163 3164 3164 3164 3164 3164 3164 3163 3163 3162 3161 3161 3160 3158 3157 3156 3156 3156 3157 3160 3162 3165 3168 3170 3172 3173 3175 3176 3176 3177 3178 3179 3181 3182 3184 3186 3187 3188 3188
3150 3149 3149 3149 3148 3148 3148 3148 3147 3147 3147 3146 3146 3146 3145 3145 3144 3143 3143 3142 3142 3141 3141 3140 3140 3140 3140 3141 3141 3142 3142 3142 3143 3143 3144 3145 3146 3147 3149 3150 3151 3153 3154 3155 3156 3158 3159 3161 3162 3163 3164 3164 3164 3163 3163 3163 3163 3162 3161 3161 3160 3159 3157 3155 3154 3153 3154 3155 3157 3159 3163 3167 3169 3171 3173 3174 3176 3177 3177 3178 3179 3181 3182 3184 3186 3188 3188 3189
3150 3149 3149 3149 3148 3148 3148 3148 3147 3147 3147 3146 3146 3145 3145 3144 3144 3143 3143 3142 3142 3141 3140 3140 3140 3140 3140 3141 3141 3142 3142 3142 3143 3143 3144 3145 3146 3147 3148 3149 3150 3152 3153 3154 3156 3157 3159 3160 3161 3162 3163 3163 3164 3163 3163 3163 3162 3162 3161 3161 3160 3159 3157 3155 3153 3153 3153 3154 3155 3159 3163 3167 3169 3171 3172 3174 3176 3177 3177 3178 3179 3181 3183 3184 3186 3188 3188 3189
3150 3150 3149 3149 3148 3148 3148 3148 3147 3147 3147 3146 3146 3145 3145 3144 3144 3143 3143 3142 3142 3141 3141 3140 3140 3140 3141 3141 3142 3142 3142 3143 3143 3143 3144 3144 3145 3146 3147 3148 3150 3151 3152 3154 3156 3157 3158 3160 3161 3162 3163 3163 3163 3163 3163 3162 3162 3162 3162 3162 3161 3159 3157 3155 3154 3154 3154 3154 3156 3160 3164 3167 3169 3171 3172 3174 3176 3177 3178 3178 3179 3181 3183 3184 3186 3188 3189 3189
3150 3150 3149 3149 3149 3148 3148 3148 3147 3147 3147 3146 3146 3145 3145 3145 3144 3144 3143 3143 3142 3142 3141 3141 3141 3141 3141 3141 3142 3142 3142 3142 3142 3143 3143 3144 3145 3146 3147 3148 3149 3150 3152 3153 3155 3156 3158 3159 3160 3161 3162 3162 3163 3162 3162 3162 3162 3163 3163 3163 3162 3160 3159 3157 3156 3155 3155 3156 3158 3162 3165 3167 3169 3171 3172 3174 3175 3177 3178 3179 3179 3181 3183 3184 3186 3187 3189 3190
3150 3150 3150 3149 3149 3149 3148 3148 3148 3147 3147 3146 3146 3146 3145 3145 3144 3144 3144 3143 3143 3142 3142 3142 3141 3141 3141 3141 3141 3141 3142 3142 3142 3143 3143 3144 3145 3146 3147 3147 3149 3150 3151 3152 3154 3155 3157 3158 3159 3161 3162 3162 3162 3162 3162 3162 3163 3163 3163 3163 3163 3162 3160 3159 3158 3158 3158 3159 3161 3163 3165 3167 3169 3171 3172 3174 3175 3177 3178 3179 3179 3181 3183 3184 3186 3187 3188 3190
3150 3150 3150 3150 3149 3149 3149 3148 3148 3147 3147 3147 3146 3146 3146 3145 3145 3145 3144 3144 3144 3143 3143 3143 3142 3142 3141 3141 3141 3141 3141 3141 3142 3143 3143 3144 3145 3146 3147 3147 3148 3150 3151 3152 3153 3154 3156 3157 3159 3160 3161 3162 3162 3162 3162 3163 3163 3163 3163 3163 3163 3163 3162 3162 3161 3161 3161 3162 3163 3164 3165 3167 3169 3171 3172 3174 3175 3177 3178 3179 3179 3181 3183 3184 3186 3187 3188 3190
3151 3150 3150 3150 3149 3149 3149 3148 3148 3148 3148 3147 3147 3146 3146 3145 3145 3145 3145 3145 3144 3144 3144 3143 3143 3142 3142 3142 3141 3141 3141 3141 3141 3142 3143 3143 3144 3145 3146 3147 3148 3149 3151 3152 3152 3154 3155 3157 3158 3159 3160 3161 3162 3162 3163 3163 3163 3164 3164 3164 3164 3164 3164 3164 3164 3164 3164 3164 3165 3166 3167 3168 3170 3171 3172 3174 3175 3177 3178 3179 3179 3181 3183 3184 3185 3186 3188 3189
3151 3151 3150 3150 3150 3149 3149 3149 3148 3148 3148 3147 3147 3147 3146 3146 3146 3146 3145 3145 3145 3145 3144 3144 3143 3143 3143 3143 3142 3141 3141 3141 3142 3142 3143 3144 3144 3145 3146 3147 3148 3149 3150 3151 3152 3154 3155 3157 3158 3159 3160 3161 3162 3162 3163 3163 3163 3164 3164 3164 3164 3164 3165 3165 3166 3166 3166 3166 3166 3167 3168 3169 3170 3171 3172 3174 3175 3177 3178 3179 3179 3181 3182 3184 3185 3186 3187 3189
3151 3151 3151 3151 3150 3150 3149 3149 3149 3149 3148 3148 3147 3147 3146 3146 3146 3146 3146 3146 3145 3145 3145 3144 3144 3144 3144 3143 3142 3142 3142 3142 3142 3143 3144 3144 3145 3146 3146 3147 3148 3149 3150 3151 3152 3154 3155 3157 3158 3159 3160 3161 3161 3162 3163 3163 3163 3163 3164 3164 3164 3165 3165 3166 3167 3167 3167 3167 3167 3167 3168 3169 3169 3171 3172 3173 3175 3176 3177 3178 3179 3180 3182 3183 3184 3186 3187 3188
3152 3151 3151 3151 3150 3150 3150 3149 3149 3149 3148 3148 3148 3147 3147 3147 3147 3147 3147 3147 3146 3146 3145 3145 3144 3145 3145 3144 3143 3143 3142 3142 3143 3144 3145 3145 3145 3146 3146 3147 3148 3149 3150 3151 3153 3154 3155 3156 3158 3159 3160 3160 3161 3162 3163 3163 3163 3164 3164 3164 3165 3165 3166 3167 3167 3168 3168 3168 3168 3168 3168 3168 3169 3170 3172 3174 3175 3176 3177 3178 3179 3180 3181 3183 3184 3185 3186 3188
3152 3152 3152 3151 3151 3150 3150 3149 3149 3148 3148 3148 3148 3148 3148 3148 3147 3147 3147 3147 3147 3146 3146 3146 3145 3145 3146 3145 3145 3144 3143 3143 3143 3144 3145 3145 3146 3146 3146 3147 3148 3149 3150 3152 3153 3154 3155 3156 3157 3158 3159 3160 3161 3162 3163 3164 3164 3165 3165 3165 3165 3165 3166 3166 3167 3168 3168 3168 3169 3169 3168 3168 3168 3170 3171 3173 3174 3175 3177 3178 3178 3179 3181 3182 3183 3185 3186 3187
3153 3152 3152 3152 3151 3150 3150 3149 3149 3149 3149 3149 3149 3149 3149 3149 3149 3149 3148 3148 3148 3147 3147 3147 3146 3146 3146 3146 3146 3145 3145 3144 3144 3145 3145 3145 3146 3146 3147 3148 3149 3150 3151 3152 3153 3154 3155 3156 3157 3158 3159 3160 3162 3163 3163 3164 3165 3165 3165 3165 3165 3165 3165 3166 3168 3167 3167 3168 3169 3169 3169 3169 3169 3170 3171 3172 3173 3174 3176 3176 3177 3179 3180 3181 3182 3184 3186 3187
3153 3153 3152 3152 3151 3151 3150 3149 3149 3149 3149 3149 3149 3150 3150 3150 3149 3150 3149 3149 3149 3148 3148 3147 3147 3147 3147 3146 3146 3146 3146 3145 3145 3146 3146 3146 3147 3147 3148 3148 3149 3150 3151 3152 3153 3154 3155 3155 3156 3158 3159 3160 3162 3162 3163 3163 3164 3164 3165 3165 3165 3165 3165 3166 3167 3167 3167 3168 3168 3169 3171 3171 3170 3170 3171 3171 3172 3173 3174 3175 3176 3178 3179 3180 3182 3183 3185 3187
3153 3153 3152 3152 3151 3151 3150 3150 3149 3149 3149 3149 3150 3150 3151 3151 3150 3150 3150 3150 3149 3149 3149 3148 3148 3148 3147 3147 3147 3147 3147 3147 3147 3147 3147 3147 3148 3148 3149 3149 3149 3150 3151 3152 3153 3154 3154 3154 3156 3158 3159 3160 3161 3162 3162 3163 3163 3164 3164 3165 3164 3164 3165 3165 3166 3167 3166 3167 3168 3169 3171 3172 3171 3170 3170 3170 3171 3172 3174 3175 3176 3177 3178 3180 3181 3182 3184 3186
3153 3152 3152 3152 3151 3151 3150 3150 3150 3150 3150 3150 3150 3151 3151 3152 3151 3151 3151 3150 3150 3150 3149 3149 3149 3149 3148 3148 3148 3148 3148 3148 3148 3148 3148 3149 3149 3149 3150 3150 3150 3151 3152 3153 3153 3154 3154 3155 3157 3158 3159 3160 3161 3161 3161 3162 3163 3163 3164 3164 3164 3164 3165 3165 3165 3166 3165 3166 3167 3168 3171 3172 3171 3170 3169 3169 3169 3171 3173 3174 3175 3177 3178 3179 3181 3182 3183 3185
3153 3152 3152 3152 3151 3151 3151 3151 3151 3150 3151 3151 3151 3152 3152 3152 3152 3151 3151 3151 3151 3151 3150 3150 3149 3149 3149 3149 3149 3149 3149 3149 3148 3149 3149 3150 3150 3150 3150 3151 3151 3152 3152 3153 3153 3154 3154 3155 3156 3157 3158 3159 3159 3160 3161 3161 3162 3162 3163 3163 3162 3164 3165 3165 3165 3165 3165 3165 3166 3167 3170 3170 3168 3168 3167 3168 3168 3169 3170 3172 3173 3175 3176 3178 3180 3181 3182 3184
3152 3152 3152 3152 3151 3151 3151 3151 3151 3151 3151 3152 3152 3152 3152 3153 3152 3152 3152 3151 3151 3151 3151 3150 3150 3150 3150 3150 3150 3150 3150 3149 3149 3150 3150 3150 3151 3151 3151 3152 3152 3152 3153 3153 3153 3154 3154 3155 3156 3156 3157 3157 3158 3159 3160 3160 3161 3161 3162 3162 3162 3164 3165 3165 3165 3164 3164 3165 3164 3167 3169 3167 3165 3166 3166 3167 3167 3167 3169 3170 3171 3173 3174 3176 3178 3179 3181 3183
3152 3152 3151 3151 3151 3151 3151 3151 3152 3152 3152 3152 3153 3153 3153 3153 3153 3152 3152 3152 3152 3152 3151 3151 3151 3151 3151 3151 3151 3150 3150 3150 3150 3150 3151 3151 3151 3151 3151 3152 3152 3153 3153 3153 3153 3154 3154 3155 3155 3155 3156 3156 3157 3157 3158 3160 3160 3160 3161 3162 3163 3164 3164 3163 3163 3163 3163 3163 3163 3166 3167 3165 3164 3163 3164 3165 3164 3165 3167 3167 3168 3170 3172 3174 3175 3177 3180 3181
3151 3151 3151 3151 3151 3151 3151 3151 3152 3152 3152 3153 3153 3153 3153 3153 3153 3153 3153 3152 3152 3152 3152 3151 3151 3151 3151 3151 3151 3151 3151 3151 3151 3151 3151 3151 3151 3151 3152 3152 3153 3153 3153 3153 3153 3154 3154 3154 3155 3155 3155 3155 3155 3156 3157 3158 3159 3159 3161 3162 3163 3163 3163 3162 3162 3162 3162 3162 3164 3165 3166 3165 3163 3161 3162 3163 3163 3163 3164 3164 3165 3167 3169 3171 3174 3176 3178 3180
3151 3150 3150 3150 3150 3151 3151 3151 3152 3152 3153 3153 3153 3154 3154 3154 3153 3153 3153 3153 3153 3152 3152 3152 3151 3151 3151 3152 3151 3151 3151 3151 3151 3151 3151 3151 3152 3152 3152 3152 3153 3154 3153 3154 3154 3154 3154 3154 3154 3154 3154 3154 3154 3155 3156 3157 3158 3159 3161 3161 3162 3162 3162 3162 3163 3163 3162 3163 3164 3163 3165 3166 3161 3158 3160 3161 3161 3161 3159 3159 3161 3164 3166 3169 3171 3174 3176 3178
3150 3150 3150 3150 3150 3150 3150 3151 3151 3152 3152 3153 3153 3154 3154 3154 3154 3153 3153 3153 3153 3152 3152 3152 3152 3152 3152 3152 3152 3152 3152 3152 3152 3152 3152 3152 3152 3152 3152 3152 3153 3154 3153 3154 3154 3154 3153 3153 3153 3153 3153 3153 3154 3154 3155 3155 3157 3158 3160 3160 3161 3161 3159 3160 3162 3163 3164 3164 3163 3162 3164 3165 3160 3156 3158 3159 3159 3157 3155 3155 3158 3161 3164 3166 3169 3172 3174 3177
3149 3149 3149 3149 3149 3149 3150 3150 3151 3152 3152 3153 3153 3154 3154 3154 3154 3153 3154 3153 3152 3152 3152 3152 3152 3152 3152 3152 3152 3152 3152 3152 3152 3152 3152 3152 3152 3152 3152 3152 3153 3153 3153 3153 3153 3154 3153 3153 3153 3153 3152 3152 3153 3153 3153 3154 3156 3157 3158 3159 3160 3159 3159 3161 3163 3165 3168 3165 3162 3161 3163 3165 3162 3155 3155 3157 3156 3155 3154 3155 3157 3159 3161 3164 3167 3170 3173 3175
3148 3148 3148 3149 3149 3149 3149 3150 3150 3151 3152 3153 3153 3153 3154 3154 3153 3153 3153 3153 3152 3152 3152 3152 3152 3152 3152 3152 3152 3152 3152 3152 3152 3153 3153 3153 3152 3152 3152 3152 3152 3153 3153 3153 3153 3154 3153 3153 3152 3152 3152 3152 3152 3152 3152 3153 3154 3155 3156 3157 3158 3159 3160 3162 3164 3167 3168 3163 3161 3161 3162 3165 3162 3155 3154 3156 3155 3155 3156 3156 3157 3157 3158 3161 3165 3168 3171 3174
3148 3147 3148 3148 3148 3148 3149 3149 3150 3151 3152 3153 3153 3153 3153 3154 3154 3153 3153 3153 3153 3152 3152 3152 3152 3152 3152 3152 3152 3152 3152 3153 3153 3153 3153 3153 3153 3152 3152 3152 3152 3153 3153 3153 3153 3153 3153 3153 3153 3152 3152 3152 3152 3152 3152 3152 3153 3154 3155 3156 3157 3159 3163 3165 3166 3167 3165 3161 3160 3161 3162 3163 3159 3154 3155 3155 3155 3155 3155 3155 3156 3157 3158 3160 3163 3166 3169 3172
3147 3147 3147 3147 3147 3148 3148 3149 3150 3151 3152 3152 3153 3153 3153 3154 3154 3153 3153 3153 3153 3153 3152 3152 3152 3152 3152 3152 3152 3152 3152 3153 3153 3153 3153 3153 3153 3152 3152 3152 3152 3153 3153 3153 3153 3153 3153 3153 3153 3152 3152 3152 3151 3151 3151 3151 3152 3152 3153 3154 3155 3160 3166 3168 3167 3166 3163 3160 3159 3160 3162 3160 3155 3154 3155 3154 3153 3153 3153 3154 3155 3156 3157 3159 3161 3164 3167 3170
3146 3146 3146 3146 3146 3147 3148 3149 3150 3151 3151 3152 3152 3153 3153 3153 3153 3153 3153 3153 3153 3153 3152 3152 3152 3151 3152 3152 3152 3152 3153 3153 3153 3153 3153 3154 3153 3153 3153 3153 3153 3153 3153 3153 3153 3153 3153 3153 3153 3153 3152 3152 3151 3151 3151 3151 3151 3151 3152 3154 3154 3157 3165 3168 3165 3163 3162 3160 3159 3160 3160 3157 3153 3154 3153 3152 3152 3152 3151 3152 3153 3154 3156 3157 3160 3162 3165 3168
3145 3145 3145 3145 3146 3146 3147 3148 3149 3150 3151 3152 3152 3152 3152 3152 3152 3153 3153 3152 3152 3152 3152 3152 3151 3151 3152 3152 3152 3152 3153 3153 3153 3154 3154 3154 3153 3153 3153 3153 3153 3153 3153 3153 3153 3153 3154 3154 3154 3154 3153 3153 3152 3151 3151 3151 3151 3151 3152 3154 3154 3155 3161 3165 3164 3161 3160 3160 3160 3159 3157 3154 3153 3152 3152 3151 3151 3150 3150 3150 3151 3153 3154 3156 3158 3159 3162 3165
3144 3144 3144 3144 3145 3145 3146 3147 3148 3150 3150 3151 3151 3151 3151 3152 3152 3152 3152 3152 3152 3151 3151 3152 3151 3151 3151 3152 3152 3152 3153 3153 3153 3154 3154 3154 3153 3153 3154 3154 3153 3153 3153 3153 3153 3153 3154 3154 3155 3155 3154 3153 3152 3151 3150 3150 3151 3152 3153 3154 3155 3156 3160 3164 3163 3161 3160 3160 3159 3157 3154 3152 3152 3151 3151 3151 3149 3149 3149 3149 3149 3151 3153 3155 3156 3157 3160 3163
3143 3143 3143 3143 3144 3144 3145 3146 3148 3149 3150 3150 3151 3151 3151 3151 3151 3151 3151 3151 3151 3151 3151 3151 3151 3151 3151 3151 3152 3152 3153 3153 3153 3154 3154 3154 3154 3154 3154 3154 3154 3154 3153 3153 3153 3153 3154 3154 3154 3154 3154 3153 3152 3151 3150 3150 3151 3152 3152 3154 3155 3157 3158 3162 3164 3162 3161 3160 3157 3155 3153 3152 3152 3150 3149 3149 3149 3148 3148 3148 3149 3150 3152 3154 3156 3157 3159 3161
3142 3141 3141 3142 3143 3143 3144 3145 3146 3148 3149 3149 3150 3150 3151 3151 3151 3151 3150 3150 3150 3150 3150 3151 3151 3150 3151 3151 3152 3152 3152 3153 3153 3153 3153 3154 3154 3154 3154 3154 3154 3154 3154 3153 3153 3153 3153 3154 3154 3154 3153 3153 3152 3152 3151 3151 3152 3151 3152 3153 3155 3156 3156 3158 3162 3162 3163 3162 3158 3154 3152 3152 3151 3150 3149 3149 3148 3148 3148 3148 3148 3149 3151 3154 3155 3157 3158 3160
3140 3140 3140 3141 3141 3142 3142 3143 3145 3146 3147 3148 3149 3149 3150 3150 3150 3150 3150 3150 3150 3150 3150 3150 3150 3150 3151 3151 3151 3152 3152 3152 3153 3153 3153 3153 3153 3154 3154 3154 3154 3154 3153 3153 3153 3153 3153 3153 3153 3153 3153 3152 3152 3152 3152 3152 3152 3151 3152 3152 3153 3154 3154 3155 3157 3158 3160 3161 3159 3154 3152 3151 3151 3151 3150 3150 3149 3149 3149 3149 3149 3149 3150 3152 3153 3155 3156 3158
3139 3139 3139 3140 3140 3140 3141 3142 3144 3145 3146 3147 3148 3148 3149 3149 3149 3149 3149 3149 3150 3150 3150 3150 3150 3150 3151 3151 3151 3152 3152 3152 3152 3152 3153 3153 3153 3153 3154 3154 3154 3154 3153 3153 3153 3152 3152 3152 3153 3152 3152 3152 3152 3152 3152 3152 3152 3151 3151 3152 3152 3153 3153 3154 3154 3154 3155 3156 3157 3154 3152 3151 3151 3151 3151 3151 3149 3149 3149 3149 3149 3150 3150 3151 3152 3153 3153 3154
3137 3137 3138 3138 3139 3139 3140 3141 3142 3144 3145 3146 3147 3147 3148 3148 3148 3148 3149 3149 3149 3149 3149 3150 3150 3150 3150 3151 3151 3151 3151 3152 3152 3152 3152 3152 3153 3153 3153 3153 3154 3153 3153 3153 3152 3152 3152 3151 3152 3151 3151 3151 3152 3152 3152 3152 3152 3151 3151 3151 3153 3153 3153 3153 3153 3152 3151 3152 3153 3153 3152 3151 3151 3151 3151 3151 3150 3149 3149 3149 3150 3150 3150 3151 3152 3152 3152 3151
3136 3136 3136 3137 3137 3138 3139 3140 3141 3142 3143 3145 3146 3146 3146 3146 3146 3147 3147 3148 3148 3148 3149 3149 3149 3150 3150 3150 3151 3151 3151 3151 3151 3152 3152 3152 3152 3153 3153 3153 3153 3153 3153 3153 3152 3151 3151 3151 3151 3151 3150 3150 3151 3152 3151 3151 3152 3152 3152 3151 3152 3152 3152 3153 3151 3150 3150 3149 3149 3151 3152 3152 3151 3151 3151 3151 3150 3149 3149 3150 3150 3150 3150 3151 3152 3152 3151 3151
3134 3134 3135 3135 3136 3136 3137 3138 3139 3140 3142 3143 3144 3144 3144 3144 3145 3146 3146 3147 3147 3147 3148 3148 3149 3149 3149 3149 3150 3150 3151 3151 3151 3151 3151 3152 3152 3152 3152 3152 3152 3153 3152 3152 3151 3151 3150 3150 3150 3150 3150 3150 3150 3150 3151 3151 3151 3152 3152 3152 3152 3152 3151 3150 3149 3149 3149 3148 3147 3149 3152 3152 3151 3150 3151 3151 3151 3150 3150 3150 3151 3151 3151 3153 3153 3152 3151 3151
3133 3133 3133 3134 3134 3135 3136 3137 3138 3139 3140 3141 3142 3142 3143 3144 3144 3145 3145 3145 3146 3146 3147 3147 3148 3148 3148 3149 3149 3150 3150 3150 3151 3151 3151 3151 3152 3152 3152 3152 3152 3152 3152 3152 3151 3150 3150 3149 3149 3149 3149 3150 3150 3150 3150 3150 3151 3151 3152 3152 3152 3152 3150 3148 3146 3147 3148 3147 3147 3148 3151 3152 3151 3151 3151 3151 3151 3150 3150 3150 3151 3152 3152 3153 3153 3153 3152 3152
3131 3132 3132 3133 3133 3134 3135 3136 3136 3137 3138 3139 3140 3141 3142 3143 3143 3143 3143 3144 3145 3146 3146 3146 3146 3147 3147 3148 3148 3149 3149 3150 3150 3150 3150 3151 3151 3152 3152 3152 3152 3152 3151 3151 3151 3150 3149 3149 3149 3148 3149 3150 3151 3150 3149 3149 3150 3150 3151 3152 3152 3151 3149 3147 3145 3145 3145 3146 3146 3147 3149 3151 3151 3151 3151 3151 3152 3151 3150 3149 3150 3152 3152 3152 3153 3153 3153 3152
3130 3130 3131 3131 3132 3133 3134 3134 3135 3136 3136 3138 3139 3140 3141 3141 3141 3141 3142 3143 3144 3144 3145 3145 3145 3146 3146 3146 3147 3147 3148 3149 3149 3150 3150 3151 3151 3151 3151 3151 3151 3151 3151 3151 3151 3150 3149 3149 3149 3148 3148 3149 3149 3149 3148 3148 3149 3149 3151 3152 3152 3152 3151 3148 3146 3145 3145 3146 3146 3146 3147 3149 3151 3152 3152 3152 3151 3151 3150 3150 3150 3151 3151 3152 3152 3153 3153 3152
3128 3129 3129 3130 3131 3131 3132 3133 3133 3134 3135 3136 3138 3138 3139 3139 3139 3139 3140 3141 3142 3143 3144 3144 3144 3145 3145 3145 3146 3147 3147 3148 3149 3149 3150 3150 3150 3151 3151 3151 3151 3151 3150 3150 3150 3150 3149 3148 3148 3148 3148 3148 3148 3148 3148 3148 3148 3148 3150 3151 3152 3153 3153 3150 3147 3146 3147 3147 3148 3148 3148 3148 3150 3152 3152 3151 3151 3150 3150 3150 3150 3150 3151 3151 3152 3152 3152 3152
3126 3126 3127 3128 3129 3129 3130 3131 3132 3133 3134 3135 3136 3136 3137 3137 3138 3138 3139 3140 3141 3142 3142 3143 3143 3144 3144 3144 3145 3146 3146 3147 3148 3148 3149 3149 3150 3150 3150 3150 3150 3150 3150 3150 3150 3150 3149 3148 3148 3148 3148 3147 3147 3148 3148 3148 3148 3148 3149 3151 3152 3153 3153 3152 3149 3147 3147 3148 3149 3149 3149 3149 3150 3150 3151 3150 3150 3150 3150 3150 3150 3150 3150 3151 3151 3151 3151 3152
3124 3124 3125 3126 3127 3128 3129 3129 3130 3131 3132 3133 3134 3135 3135 3136 3136 3137 3137 3138 3139 3140 3141 3141 3142 3142 3143 3143 3144 3144 3145 3146 3147 3147 3148 3149 3149 3149 3149 3149 3149 3150 3150 3150 3149 3149 3149 3148 3148 3148 3148 3147 3147 3148 3147 3147 3148 3148 3149 3150 3151 3152 3152 3151 3150 3147 3147 3149 3151 3151 3150 3149 3149 3149 3149 3149 3150 3150 3150 3150 3150 3150 3150 3150 3151 3151 3151 3151
3122 3122 3123 3124 3125 3126 3127 3128 3129 3130 3131 3132 3132 3133 3134 3134 3135 3135 3136 3137 3137 3138 3139 3140 3140 3141 3142 3142 3143 3143 3143 3144 3145 3146 3147 3147 3148 3148 3148 3148 3149 3149 3149 3149 3149 3149 3148 3148 3148 3147 3147 3147 3147 3147 3147 3147 3148 3148 3148 3148 3150 3151 3151 3150 3149 3147 3147 3149 3152 3152 3151 3150 3148 3148 3148 3148 3148 3149 3149 3150 3150 3150 3150 3150 3150 3150 3150 3150
3120 3120 3120 3122 3123 3124 3125 3126 3127 3128 3129 3130 3131 3132 3133 3133 3133 3134 3134 3135 3136 3136 3138 3139 3139 3140 3140 3141 3141 3142 3142 3143 3144 3145 3145 3146 3146 3147 3147 3148 3148 3149 3149 3148 3149 3149 3148 3148 3147 3147 3147 3147 3147 3147 3147 3147 3148 3148 3148 3147 3148 3149 3150 3149 3148 3147 3147 3150 3152 3153 3153 3150 3148 3147 3147 3147 3148 3148 3149 3149 3150 3150 3150 3150 3150 3151 3151 3150
3118 3118 3118 3119 3120 3122 3122 3123 3125 3126 3127 3128 3129 3130 3131 3132 3132 3132 3133 3133 3134 3135 3136 3137 3138 3139 3139 3140 3140 3141 3142 3142 3143 3143 3144 3145 3145 3146 3146 3147 3147 3148 3148 3148 3148 3148 3148 3148 3147 3147 3147 3147 3147 3147 3147 3148 3148 3148 3147 3147 3148 3148 3148 3148 3148 3148 3148 3150 3152 3154 3153 3151 3148 3147 3146 3146 3147 3147 3148 3149 3149 3150 3150 3150 3151 3151 3151 3150